Volver al catálogo

COSMOS 2251 DEB

ActivoLEO
NORAD 36050·DEBRIS·🇷🇺 Russia

Lanzado Jun 16, 1993 desde Plesetsk Cosmodrome

Loading…

Próximos Pases (próximas 24 horas)

TLE

EnvejeciendoSource: Space-Track

Época: Sep 12, 2026, 13:04 UTC

1 36050U 93036AXM 26255.54472758  .00003816  00000-0  25336-3 0  9997
2 36050  74.0329 354.4181 0081422 359.9853   0.1318 15.04899274711490

Sigue COSMOS 2251 DEB en tiempo real con AllMySat

Download on the App Store